This is the latest recevied weather packets stored in our database for station/object JA0ZJX-13. If no packets are shown the sender has not sent any weather packets the latest 10 day(s).
| Time | Temp. | Humidity | Pressure | Rain* | Wind** | Luminosity | Snow |
|---|---|---|---|---|---|---|---|
| 1777956825 | 20.56° C | 30% | 1017.6 hPa | 0 mm | - | 882 W/m² | - |
| 1777956213 | 20.56° C | 31% | 1017.8 hPa | 0 mm | - | 907 W/m² | - |
| 1777955607 | 20° C | 30% | 1017.9 hPa | 0 mm | - | 926 W/m² | - |
| 1777955017 | 19.44° C | 32% | 1018.1 hPa | 0 mm | - | 940 W/m² | - |
| 1777954407 | 19.44° C | 31% | 1018.3 hPa | 0 mm | - | 954 W/m² | - |
| 1777953816 | 19.44° C | 31% | 1018.3 hPa | 0 mm | - | 974 W/m² | - |
| 1777953208 | 18.89° C | 30% | 1018.5 hPa | 0 mm | - | 983 W/m² | - |
| 1777952617 | 18.89° C | 31% | 1018.7 hPa | 0 mm | - | 995 W/m² | - |
| 1777952006 | 18.33° C | 32% | 1018.9 hPa | 0 mm | - | 1000 W/m² | - |
| 1777951418 | 18.33° C | 33% | 1019 hPa | 0 mm | - | 1009 W/m² | - |
| 1777950808 | 17.78° C | 34% | 1019.1 hPa | 0 mm | - | 1014 W/m² | - |
| 1777950217 | 17.22° C | 34% | 1019.1 hPa | 0 mm | - | 1016 W/m² | - |
| 1777949606 | 16.67° C | 32% | 1019.2 hPa | 0 mm | - | 1020 W/m² | - |
| 1777949019 | 16.67° C | 33% | 1019.4 hPa | 0 mm | - | 1014 W/m² | - |
| 1777948407 | 16.67° C | 37% | 1019.4 hPa | 0 mm | - | 1013 W/m² | - |
| 1777947816 | 16.11° C | 37% | 1019.6 hPa | 0 mm | - | 1009 W/m² | - |
| 1777947206 | 16.11° C | 40% | 1019.8 hPa | 0 mm | - | 1004 W/m² | - |
| 1777946619 | 15.56° C | 39% | 1019.8 hPa | 0 mm | - | 993 W/m² | - |
| 1777946007 | 15° C | 40% | 1019.8 hPa | 0 mm | - | 983 W/m² | - |
| 1777945416 | 15° C | 40% | 1019.9 hPa | 0 mm | - | 972 W/m² | - |
| 1777944810 | 15° C | 40% | 1020 hPa | 0 mm | - | 962 W/m² | - |
| 1777944218 | 14.44° C | 40% | 1020.3 hPa | 0 mm | - | 944 W/m² | - |
| 1777943607 | 14.44° C | 43% | 1020.4 hPa | 0 mm | - | 930 W/m² | - |
| 1777943017 | 13.89° C | 44% | 1020.5 hPa | 0 mm | - | 911 W/m² | - |
| 1777942411 | 13.89° C | 45% | 1020.4 hPa | 0 mm | - | 893 W/m² | - |
* Rain latest hour (hover to see other rain measurements)
** Current wind speed in m/s (hover to see current wind gust speed)